Location: Atbuku
(36.4936°N, 30.4362°E)
Time: 04:21:11
(UTC+00:00)

OAO 1 - Pass Details

Date: 11 December 2025
Orbit: 771 x 781 km, 35.0° (Epoch: 13 January)

Event Time Altitude Azimuth Distance (km) Brightness Sun altitude
Rises 16:47:02 0° 266° (W) 3,251 9.1 -24.2°
Reaches altitude 10° 16:49:31 10° 265° (W) 2,324 8.0 -24.7°
Maximum altitude 16:55:00 78° 180° (S) 797 4.5 -25.8°
Enters shadow 16:55:25 73° 133° (SE) 813 4.4 -25.8°
